This is the latest recevied weather packets stored in our database for station/object KF4ERV-4. If no packets are shown the sender has not sent any weather packets the latest 10 day(s).
| Time | Temp. | Humidity | Pressure | Rain* | Wind** | Luminosity | Snow |
|---|---|---|---|---|---|---|---|
| 1778204697 | 12.78° C | 69% | 1016 hPa | 0 mm | - | - | - |
| 1778204496 | 12.78° C | 69% | 1016 hPa | 0 mm | - | - | - |
| 1778204378 | 12.78° C | 57% | 1016 hPa | 0 mm | - | - | - |
| 1778204206 | 12.78° C | 68% | 1016 hPa | 0 mm | - | - | - |
| 1778204101 | 12.78° C | 68% | 1016 hPa | 0 mm | - | - | - |
| 1778203916 | 12.78° C | 57% | 1016 hPa | 0 mm | - | - | - |
| 1778203796 | 12.78° C | 57% | 1016 hPa | 0 mm | - | - | - |
| 1778203629 | 12.78° C | 54% | 1016 hPa | 0 mm | - | - | - |
| 1778203588 | 13.33° C | 53% | 1016 hPa | 0 mm | - | - | - |
| 1778203496 | 12.78° C | 54% | 1016 hPa | 0 mm | - | - | - |
| 1778203469 | 13.33° C | 53% | 1016 hPa | 0 mm | - | - | - |
| 1778203337 | 13.33° C | 53% | 1016 hPa | 0 mm | - | - | - |
| 1778203202 | 13.33° C | 53% | 1016 hPa | 0 mm | - | - | - |
| 1778203116 | 13.33° C | 53% | 1016 hPa | 0 mm | - | - | - |
| 1778203046 | 13.33° C | 53% | 1016 hPa | 0 mm | - | - | - |
| 1778202904 | 13.33° C | 53% | 1016 hPa | 0 mm | - | - | - |
| 1778202757 | 13.89° C | 53% | 1016 hPa | 0 mm | - | - | - |
| 1778202594 | 13.89° C | 53% | 1016 hPa | 0 mm | - | - | - |
| 1778202563 | 13.89° C | 47% | 1015.9 hPa | 0 mm | - | - | - |
| 1778202466 | 13.89° C | 51% | 1015.9 hPa | 0 mm | - | - | - |
| 1778202297 | 13.89° C | 51% | 1015.9 hPa | 0 mm | - | - | - |
| 1778202230 | 14.44° C | 47% | 1015.9 hPa | 0 mm | - | - | - |
| 1778202184 | 13.89° C | 47% | 1015.9 hPa | 0 mm | - | - | - |
| 1778202002 | 13.89° C | 47% | 1015.9 hPa | 0 mm | - | - | - |
| 1778201888 | 14.44° C | 47% | 1015.9 hPa | 0 mm | - | - | - |
* Rain latest hour (hover to see other rain measurements)
** Current wind speed in m/s (hover to see current wind gust speed)